Location: Peebles
(55.6412°N, 3.1714°W)
Time: 06:45:13
(UTC+01:00)

Altair 2 - Pass Details

Date: 04 July 2022
Orbit: 702 x 2529 km, 96.4° (Epoch: 10 August)

Event Time Altitude Azimuth Distance (km) Brightness Sun altitude
Rises 01:38:48 0° 82° (E) 5,475 12.1 -11.3°
Reaches altitude 10° 01:44:18 10° 62° (ENE) 4,104 11.7 -11.3°
Maximum altitude 01:48:44 14° 35° (NE) 3,433 11.8 -11.2°
Drops below altitude 10° 01:52:35 10° 7° (N) 3,459 12.5 -11.1°
Sets 01:56:30 0° 344° (NNW) 4,105 12.6 -11.0°
